Time,TemperatureF,DewpointF,PressureIn,WindDirection,WindDirectionDegrees,WindSpeedMPH,WindSpeedGustMPH,Humidity,HourlyPrecipIn,Conditions,Clouds,dailyrainin,SoftwareType,DateUTC
2013-01-22 00:02:00,30.0,20.0,-100.00,NNW,330,11.0,18.0,67,-99.99,,,-99.99,,2013-01-22 05:02:00,
2013-01-22 00:11:00,29.0,19.0,-100.00,WNW,300,13.0,18.0,65,-99.99,,,-99.99,,2013-01-22 05:11:00,
2013-01-22 00:22:00,29.0,19.0,-100.00,WNW,300,13.0,18.0,65,-99.99,,,-99.99,,2013-01-22 05:22:00,
2013-01-22 00:32:00,29.0,19.0,-100.00,WNW,300,13.0,18.0,65,-99.99,,,-99.99,,2013-01-22 05:32:00,
2013-01-22 00:42:00,29.0,19.0,-100.00,WNW,300,13.0,18.0,65,-99.99,,,-99.99,,2013-01-22 05:42:00,
2013-01-22 00:52:00,29.0,19.0,-100.00,WNW,300,11.0,16.0,65,-99.99,,,-99.99,,2013-01-22 05:52:00,
2013-01-22 01:02:00,29.0,19.0,-100.00,WNW,300,11.0,16.0,65,-99.99,,,-99.99,,2013-01-22 06:02:00,
2013-01-22 01:11:00,29.0,17.0,-100.00,WNW,300,18.0,22.0,60,-99.99,,,-99.99,,2013-01-22 06:11:00,
2013-01-22 01:22:00,29.0,17.0,-100.00,WNW,300,18.0,22.0,60,-99.99,,,-99.99,,2013-01-22 06:22:00,
2013-01-22 01:32:00,29.0,17.0,-100.00,WNW,300,18.0,22.0,60,-99.99,,,-99.99,,2013-01-22 06:32:00,
2013-01-22 01:42:00,29.0,14.0,-100.00,NW,310,20.0,25.0,53,-99.99,,,-99.99,,2013-01-22 06:42:00,
2013-01-22 01:52:00,29.0,14.0,-100.00,NW,310,20.0,25.0,53,-99.99,,,-99.99,,2013-01-22 06:52:00,
2013-01-22 02:02:00,29.0,14.0,-100.00,NW,310,20.0,25.0,53,-99.99,,,-99.99,,2013-01-22 07:02:00,
2013-01-22 02:11:00,28.0,14.0,-100.00,WNW,290,18.0,25.0,54,-99.99,,,-99.99,,2013-01-22 07:11:00,
2013-01-22 02:22:00,28.0,14.0,-100.00,WNW,290,18.0,25.0,54,-99.99,,,-99.99,,2013-01-22 07:22:00,
2013-01-22 02:32:00,28.0,14.0,-100.00,WNW,290,18.0,25.0,54,-99.99,,,-99.99,,2013-01-22 07:32:00,
2013-01-22 02:42:00,27.0,13.0,-100.00,WNW,290,20.0,27.0,52,-99.99,,,-99.99,,2013-01-22 07:42:00,
2013-01-22 02:52:00,27.0,13.0,-100.00,WNW,290,20.0,27.0,52,-99.99,,,-99.99,,2013-01-22 07:52:00,
2013-01-22 03:01:00,27.0,13.0,-100.00,WNW,290,20.0,27.0,52,-99.99,,,-99.99,,2013-01-22 08:01:00,
2013-01-22 03:11:00,27.0,13.0,-100.00,WNW,290,20.0,27.0,52,-99.99,,,-99.99,,2013-01-22 08:11:00,
2013-01-22 03:22:00,27.0,13.0,-100.00,WNW,290,20.0,25.0,54,-99.99,,,-99.99,,2013-01-22 08:22:00,
2013-01-22 03:32:00,27.0,13.0,-100.00,WNW,290,20.0,25.0,54,-99.99,,,-99.99,,2013-01-22 08:32:00,
2013-01-22 03:42:00,26.0,11.0,-100.00,WNW,290,22.0,36.0,52,-99.99,,,-99.99,,2013-01-22 08:42:00,
2013-01-22 03:52:00,26.0,11.0,-100.00,WNW,290,22.0,36.0,52,-99.99,,,-99.99,,2013-01-22 08:52:00,
2013-01-22 04:02:00,26.0,11.0,-100.00,WNW,290,22.0,36.0,52,-99.99,,,-99.99,,2013-01-22 09:02:00,
2013-01-22 04:11:00,26.0,11.0,-100.00,WNW,290,20.0,29.0,52,-99.99,,,-99.99,,2013-01-22 09:11:00,
2013-01-22 04:22:00,26.0,11.0,-100.00,WNW,290,20.0,29.0,52,-99.99,,,-99.99,,2013-01-22 09:22:00,
2013-01-22 04:32:00,26.0,11.0,-100.00,WNW,290,20.0,29.0,52,-99.99,,,-99.99,,2013-01-22 09:32:00,
2013-01-22 04:42:00,25.0,10.0,-100.00,West,280,22.0,31.0,52,-99.99,,,-99.99,,2013-01-22 09:42:00,
2013-01-22 04:52:00,25.0,10.0,-100.00,West,280,22.0,31.0,52,-99.99,,,-99.99,,2013-01-22 09:52:00,
2013-01-22 05:01:00,25.0,10.0,-100.00,West,280,22.0,31.0,52,-99.99,,,-99.99,,2013-01-22 10:01:00,
2013-01-22 05:11:00,25.0,11.0,-100.00,West,280,22.0,27.0,55,-99.99,,,-99.99,,2013-01-22 10:11:00,
2013-01-22 05:22:00,25.0,11.0,-100.00,West,280,22.0,27.0,55,-99.99,,,-99.99,,2013-01-22 10:22:00,
2013-01-22 05:32:00,25.0,11.0,-100.00,West,280,22.0,27.0,55,-99.99,,,-99.99,,2013-01-22 10:32:00,
2013-01-22 05:42:00,25.0,12.0,-100.00,WNW,290,22.0,29.0,56,-99.99,,,-99.99,,2013-01-22 10:42:00,
2013-01-22 05:52:00,25.0,12.0,-100.00,WNW,290,22.0,29.0,56,-99.99,,,-99.99,,2013-01-22 10:52:00,
2013-01-22 06:01:00,25.0,12.0,-100.00,WNW,290,22.0,29.0,56,-99.99,,,-99.99,,2013-01-22 11:01:00,
2013-01-22 06:11:00,24.0,12.0,-100.00,West,280,22.0,31.0,59,-99.99,,,-99.99,,2013-01-22 11:11:00,
2013-01-22 06:22:00,24.0,12.0,-100.00,West,280,22.0,31.0,59,-99.99,,,-99.99,,2013-01-22 11:22:00,
2013-01-22 06:32:00,24.0,12.0,-100.00,West,280,22.0,31.0,59,-99.99,,,-99.99,,2013-01-22 11:32:00,
2013-01-22 06:42:00,24.0,13.0,-100.00,WNW,290,22.0,31.0,61,-99.99,,,-99.99,,2013-01-22 11:42:00,
2013-01-22 06:52:00,24.0,13.0,-100.00,WNW,290,22.0,31.0,61,-99.99,,,-99.99,,2013-01-22 11:52:00,
2013-01-22 07:02:00,24.0,13.0,-100.00,WNW,290,22.0,31.0,61,-99.99,,,-99.99,,2013-01-22 12:02:00,
2013-01-22 07:11:00,24.0,13.0,-100.00,WNW,290,22.0,31.0,61,-99.99,,,-99.99,,2013-01-22 12:11:00,
2013-01-22 07:22:00,23.0,11.0,-100.00,NW,310,20.0,27.0,59,-99.99,,,-99.99,,2013-01-22 12:22:00,
2013-01-22 07:32:00,23.0,11.0,-100.00,NW,310,20.0,27.0,59,-99.99,,,-99.99,,2013-01-22 12:32:00,
2013-01-22 07:42:00,23.0,11.0,-100.00,NW,310,20.0,27.0,59,-99.99,,,-99.99,,2013-01-22 12:42:00,
2013-01-22 07:52:00,23.0,11.0,-100.00,NW,310,20.0,27.0,59,-99.99,,,-99.99,,2013-01-22 12:52:00,
2013-01-22 08:02:00,23.0,11.0,-100.00,NW,310,20.0,27.0,59,-99.99,,,-99.99,,2013-01-22 13:02:00,
2013-01-22 08:11:00,23.0,11.0,-100.00,NW,310,20.0,27.0,59,-99.99,,,-99.99,,2013-01-22 13:11:00,
2013-01-22 09:42:00,21.0,6.0,-100.00,NW,310,22.0,31.0,50,-99.99,,,-99.99,,2013-01-22 14:42:00,
2013-01-22 09:52:00,21.0,6.0,-100.00,NW,310,22.0,31.0,50,-99.99,,,-99.99,,2013-01-22 14:52:00,
2013-01-22 10:02:00,21.0,6.0,-100.00,NW,310,22.0,31.0,50,-99.99,,,-99.99,,2013-01-22 15:02:00,
2013-01-22 10:12:00,21.0,6.0,-100.00,NW,310,22.0,31.0,50,-99.99,,,-99.99,,2013-01-22 15:12:00,
2013-01-22 10:22:00,21.0,6.0,-100.00,WNW,300,22.0,29.0,50,-99.99,,,-99.99,,2013-01-22 15:22:00,
2013-01-22 10:32:00,21.0,6.0,-100.00,WNW,300,22.0,29.0,50,-99.99,,,-99.99,,2013-01-22 15:32:00,
2013-01-22 10:42:00,21.0,6.0,-100.00,WNW,300,22.0,29.0,50,-99.99,,,-99.99,,2013-01-22 15:42:00,
2013-01-22 10:52:00,22.0,6.0,-100.00,WNW,290,22.0,31.0,51,-99.99,,,-99.99,,2013-01-22 15:52:00,
2013-01-22 11:02:00,22.0,6.0,-100.00,WNW,290,22.0,31.0,51,-99.99,,,-99.99,,2013-01-22 16:02:00,
2013-01-22 11:12:00,22.0,6.0,-100.00,WNW,290,22.0,31.0,51,-99.99,,,-99.99,,2013-01-22 16:12:00,
2013-01-22 11:22:00,22.0,7.0,-100.00,WNW,300,22.0,29.0,51,-99.99,,,-99.99,,2013-01-22 16:22:00,
2013-01-22 11:32:00,22.0,7.0,-100.00,WNW,300,22.0,29.0,51,-99.99,,,-99.99,,2013-01-22 16:32:00,
2013-01-22 11:42:00,21.0,6.0,-100.00,West,270,22.0,31.0,51,-99.99,,,-99.99,,2013-01-22 16:42:00,
2013-01-22 11:52:00,21.0,6.0,-100.00,West,270,22.0,31.0,51,-99.99,,,-99.99,,2013-01-22 16:52:00,
2013-01-22 12:02:00,21.0,6.0,-100.00,West,270,22.0,31.0,51,-99.99,,,-99.99,,2013-01-22 17:02:00,
2013-01-22 12:11:00,22.0,7.0,-100.00,West,280,20.0,29.0,51,-99.99,,,-99.99,,2013-01-22 17:11:00,
2013-01-22 12:22:00,22.0,7.0,-100.00,West,280,20.0,29.0,51,-99.99,,,-99.99,,2013-01-22 17:22:00,
2013-01-22 12:32:00,22.0,7.0,-100.00,West,280,20.0,29.0,51,-99.99,,,-99.99,,2013-01-22 17:32:00,
2013-01-22 12:42:00,22.0,7.0,-100.00,West,280,20.0,29.0,51,-99.99,,,-99.99,,2013-01-22 17:42:00,
2013-01-22 12:53:00,21.0,8.0,-100.00,WNW,290,25.0,29.0,54,-99.99,,,-99.99,,2013-01-22 17:53:00,
2013-01-22 13:02:00,21.0,8.0,-100.00,WNW,290,25.0,29.0,54,-99.99,,,-99.99,,2013-01-22 18:02:00,
2013-01-22 13:22:00,21.0,7.0,-100.00,West,280,22.0,29.0,52,-99.99,,,-99.99,,2013-01-22 18:22:00,
2013-01-22 13:33:00,21.0,7.0,-100.00,West,280,22.0,29.0,52,-99.99,,,-99.99,,2013-01-22 18:33:00,
2013-01-22 13:53:00,22.0,5.0,-100.00,West,280,22.0,27.0,47,-99.99,,,-99.99,,2013-01-22 18:53:00,
2013-01-22 14:00:00,22.0,3.0,-100.00,WNW,290,22.0,31.0,43,-99.99,,,-99.99,,2013-01-22 19:00:00,
2013-01-22 14:02:00,22.0,5.0,-100.00,West,280,22.0,27.0,47,-99.99,,,-99.99,,2013-01-22 19:02:00,
2013-01-22 14:12:00,22.0,5.0,-100.00,West,280,22.0,27.0,47,-99.99,,,-99.99,,2013-01-22 19:12:00,
2013-01-22 14:22:00,22.0,5.0,-100.00,WNW,300,22.0,29.0,46,-99.99,,,-99.99,,2013-01-22 19:22:00,
2013-01-22 14:32:00,22.0,5.0,-100.00,WNW,300,22.0,29.0,46,-99.99,,,-99.99,,2013-01-22 19:32:00,
2013-01-22 14:42:00,22.0,3.0,-100.00,WNW,290,22.0,31.0,43,-99.99,,,-99.99,,2013-01-22 19:42:00,
2013-01-22 14:53:00,22.0,3.0,-100.00,WNW,290,22.0,31.0,43,-99.99,,,-99.99,,2013-01-22 19:53:00,
2013-01-22 15:00:00,22.0,3.0,-100.00,WNW,290,22.0,29.0,42,-99.99,,,-99.99,,2013-01-22 20:00:00,
2013-01-22 15:12:00,22.0,3.0,-100.00,WNW,290,22.0,31.0,42,-99.99,,,-99.99,,2013-01-22 20:12:00,
2013-01-22 15:22:00,22.0,2.0,-100.00,WNW,290,22.0,31.0,40,-99.99,,,-99.99,,2013-01-22 20:22:00,
2013-01-22 15:32:00,22.0,2.0,-100.00,WNW,290,22.0,31.0,40,-99.99,,,-99.99,,2013-01-22 20:32:00,
2013-01-22 15:42:00,22.0,2.0,-100.00,WNW,290,22.0,31.0,40,-99.99,,,-99.99,,2013-01-22 20:42:00,
2013-01-22 15:52:00,22.0,3.0,-100.00,WNW,290,22.0,29.0,42,-99.99,,,-99.99,,2013-01-22 20:52:00,
2013-01-22 16:30:00,22.0,4.0,-100.00,WNW,290,22.0,29.0,44,-99.99,,,-99.99,,2013-01-22 21:30:00,
2013-01-22 16:33:00,22.0,2.0,-100.00,West,280,22.0,29.0,41,-99.99,,,-99.99,,2013-01-22 21:33:00,
2013-01-22 16:42:00,22.0,5.0,-100.00,WNW,290,25.0,29.0,45,-99.99,,,-99.99,,2013-01-22 21:42:00,
2013-01-22 16:52:00,22.0,5.0,-100.00,WNW,290,25.0,29.0,45,-99.99,,,-99.99,,2013-01-22 21:52:00,
2013-01-22 17:12:00,22.0,4.0,-100.00,WNW,290,22.0,29.0,44,-99.99,,,-99.99,,2013-01-22 22:12:00,
2013-01-22 17:22:00,22.0,4.0,-100.00,WNW,290,22.0,29.0,44,-99.99,,,-99.99,,2013-01-22 22:22:00,
2013-01-22 17:42:00,21.0,3.0,-100.00,WNW,300,20.0,29.0,44,-99.99,,,-99.99,,2013-01-22 22:42:00,
2013-01-22 17:52:00,21.0,3.0,-100.00,WNW,300,20.0,29.0,44,-99.99,,,-99.99,,2013-01-22 22:52:00,
2013-01-22 18:12:00,21.0,4.0,-100.00,West,280,22.0,31.0,46,-99.99,,,-99.99,,2013-01-22 23:12:00,
2013-01-22 18:22:00,21.0,4.0,-100.00,West,280,22.0,31.0,46,-99.99,,,-99.99,,2013-01-22 23:22:00,
2013-01-22 18:32:00,21.0,4.0,-100.00,West,280,22.0,31.0,46,-99.99,,,-99.99,,2013-01-22 23:32:00,
2013-01-22 18:42:00,21.0,4.0,-100.00,West,270,22.0,29.0,46,-99.99,,,-99.99,,2013-01-22 23:42:00,
2013-01-22 18:52:00,21.0,4.0,-100.00,West,270,22.0,29.0,46,-99.99,,,-99.99,,2013-01-22 23:52:00,
2013-01-22 19:02:00,21.0,4.0,-100.00,West,270,22.0,29.0,46,-99.99,,,-99.99,,2013-01-23 00:02:00,
2013-01-22 19:12:00,21.0,2.0,-100.00,WNW,300,22.0,29.0,43,-99.99,,,-99.99,,2013-01-23 00:12:00,
2013-01-22 19:22:00,21.0,2.0,-100.00,WNW,300,22.0,29.0,43,-99.99,,,-99.99,,2013-01-23 00:22:00,
2013-01-22 19:32:00,21.0,2.0,-100.00,WNW,300,22.0,29.0,43,-99.99,,,-99.99,,2013-01-23 00:32:00,
2013-01-22 19:42:00,20.0,2.0,-100.00,WNW,300,22.0,29.0,43,-99.99,,,-99.99,,2013-01-23 00:42:00,
2013-01-22 19:52:00,20.0,2.0,-100.00,WNW,300,22.0,29.0,43,-99.99,,,-99.99,,2013-01-23 00:52:00,
2013-01-22 20:12:00,20.0,0.0,-100.00,WNW,290,18.0,25.0,41,-99.99,,,-99.99,,2013-01-23 01:12:00,
2013-01-22 20:22:00,20.0,0.0,-100.00,WNW,290,18.0,25.0,41,-99.99,,,-99.99,,2013-01-23 01:22:00,
2013-01-22 20:32:00,20.0,0.0,-100.00,WNW,290,18.0,25.0,41,-99.99,,,-99.99,,2013-01-23 01:32:00,
2013-01-22 20:42:00,20.0,3.0,-100.00,WNW,290,25.0,31.0,47,-99.99,,,-99.99,,2013-01-23 01:42:00,
2013-01-22 20:52:00,20.0,3.0,-100.00,WNW,290,25.0,31.0,47,-99.99,,,-99.99,,2013-01-23 01:52:00,
2013-01-22 21:22:00,19.0,3.0,-100.00,WNW,290,22.0,31.0,49,-99.99,,,-99.99,,2013-01-23 02:22:00,
2013-01-22 21:32:00,19.0,3.0,-100.00,WNW,290,22.0,31.0,49,-99.99,,,-99.99,,2013-01-23 02:32:00,
2013-01-22 21:42:00,19.0,3.0,-100.00,West,280,25.0,31.0,50,-99.99,,,-99.99,,2013-01-23 02:42:00,
2013-01-22 21:52:00,19.0,3.0,-100.00,West,280,25.0,31.0,50,-99.99,,,-99.99,,2013-01-23 02:52:00,
2013-01-22 22:02:00,19.0,3.0,-100.00,West,280,25.0,31.0,50,-99.99,,,-99.99,,2013-01-23 03:02:00,
2013-01-22 22:12:00,18.0,3.0,-100.00,West,280,22.0,27.0,50,-99.99,,,-99.99,,2013-01-23 03:12:00,
2013-01-22 22:22:00,18.0,3.0,-100.00,West,280,22.0,27.0,50,-99.99,,,-99.99,,2013-01-23 03:22:00,
2013-01-22 22:52:00,18.0,4.0,-100.00,West,280,22.0,34.0,54,-99.99,,,-99.99,,2013-01-23 03:52:00,
2013-01-22 23:11:00,17.0,1.0,-100.00,West,280,25.0,34.0,48,-99.99,,,-99.99,,2013-01-23 04:11:00,
2013-01-22 23:22:00,17.0,1.0,-100.00,West,280,25.0,34.0,48,-99.99,,,-99.99,,2013-01-23 04:22:00,
2013-01-22 23:42:00,17.0,0.0,-100.00,WNW,290,25.0,34.0,47,-99.99,,,-99.99,,2013-01-23 04:42:00,
2013-01-22 23:52:00,17.0,0.0,-100.00,WNW,290,25.0,34.0,47,-99.99,,,-99.99,,2013-01-23 04:52:00,